Clearfield, PA

4:11 PM EST on February 10, 2016 (GMT -0500)
Clearfield-Lawrence

Weather History for KFIG - March, 2013

Change the Weather History Date:

Sunday, March 10, 2013

  Actual Average (KDUJ) Record (KDUJ)
Temperature  
Mean Temperature 44 °F 33 °F  
Max Temperature 61 °F 42 °F 69 °F (1986)
Min Temperature 28 °F 23 °F 0 °F (1996)
Degree Days  
Heating Degree Days 20 32  
Month to date heating degree days 338  
Since 1 July heating degree days 5361  
Cooling Degree Days 0 0  
Month to date cooling degree days 0  
Year to date cooling degree days 0  
Moisture  
Dew Point 23 °F    
Average Humidity 43    
Maximum Humidity 75    
Minimum Humidity 24    
Precipitation  
Precipitation 0.00 in 0.10 in 9.03 in (1998)
Month to date precipitation 1.00  
Sea Level Pressure  
Sea Level Pressure 30.18 in    
Wind  
Wind Speed 6 mph (East)    
Max Wind Speed 10 mph    
Max Gust Speed 17 mph    
Visibility 10 miles    
Events      
T = Trace of Precipitation, MM = Missing Value Source: NWS Daily Summary

Daily Weather History Graph

Daily Weather History Graph

Search for Another Location

Airport or City:

Trip Planner

Search our weather history database for the weather conditions in past years. The results will help you decide how hot, cold, wet, or windy it might be!

Date:

Astronomy

Mar. 10, 2013 Rise Set
Actual Time 7:33 AM EDT 7:15 PM EDT
Civil Twilight 7:05 AM EDT 7:42 PM EDT
Nautical Twilight 6:33 AM EDT 8:14 PM EDT
Astronomical Twilight 6:01 AM EDT 8:46 PM EDT
Moon 6:32 AM EDT 6:20 PM EDT
Length of Visible Light 12h 36m
Length of Day
11h 41m
Waning Crescent, 2% of the Moon is Illuminated
Mar 10
Waning Crescent
Mar 11
New
Mar 19
First Quarter
Mar 27
Full
Apr 3
Last Quarter

Hourly Weather History & Observations

Time (EDT) Temp. Windchill Dew Point Humidity Pressure Visibility Wind Dir Wind Speed Gust Speed Precip Events Conditions
12:54 AM 30.0 °F 23.2 °F 21.9 °F 72% 30.27 in 10.0 mi North 6.9 mph - N/A   Clear
1:54 AM 28.9 °F 22.8 °F 21.9 °F 75% 30.25 in 10.0 mi North 5.8 mph - N/A   Clear
3:54 AM 30.0 °F 24.1 °F 21.9 °F 72% 30.23 in 10.0 mi NE 5.8 mph - N/A   Clear
4:54 AM 32.0 °F 27.5 °F 23.0 °F 69% 30.22 in 10.0 mi NNE 4.6 mph - N/A   Partly Cloudy
5:54 AM 36.0 °F 31.1 °F 23.0 °F 59% 30.22 in 10.0 mi NE 5.8 mph - N/A   Overcast
6:54 AM 34.0 °F 28.8 °F 23.0 °F 64% 30.22 in 10.0 mi ENE 5.8 mph - N/A   Overcast
8:54 AM 37.9 °F 34.4 °F 25.0 °F 60% 30.25 in 10.0 mi NNW 4.6 mph - N/A   Scattered Clouds
9:54 AM 44.1 °F 41.5 °F 24.1 °F 45% 30.23 in 10.0 mi North 4.6 mph - N/A   Clear
10:54 AM 48.0 °F - 19.0 °F 32% 30.24 in 10.0 mi Calm Calm - N/A   Scattered Clouds
11:54 AM 54.0 °F - 21.9 °F 29% 30.22 in 10.0 mi Variable 6.9 mph - N/A   Clear
12:54 PM 52.0 °F - 21.0 °F 30% 30.21 in 10.0 mi South 8.1 mph - N/A   Overcast
1:54 PM 55.9 °F - 21.9 °F 27% 30.19 in 10.0 mi South 10.4 mph 17.3 mph 0.00 in   Partly Cloudy
2:54 PM 59.0 °F - 23.0 °F 25% 30.15 in 10.0 mi Variable 4.6 mph - N/A   Clear
3:54 PM 61.0 °F - 25.0 °F 25% 30.13 in 10.0 mi SSE 8.1 mph - N/A   Clear
4:54 PM 61.0 °F - 24.1 °F 24% 30.12 in 10.0 mi South 6.9 mph 16.1 mph N/A   Clear
5:54 PM 57.9 °F - 24.1 °F 27% 30.12 in 10.0 mi Variable 5.8 mph - N/A   Clear
6:54 PM 55.0 °F - 25.0 °F 31% 30.11 in 10.0 mi Variable 4.6 mph - N/A   Clear
7:54 PM 52.0 °F - 26.1 °F 37% 30.13 in 10.0 mi SSE 4.6 mph - N/A   Clear
8:54 PM 51.1 °F - 24.1 °F 35% 30.13 in 10.0 mi SSE 4.6 mph - N/A   Clear
9:54 PM 51.1 °F - 24.1 °F 35% 30.13 in 10.0 mi East 3.5 mph - N/A   Clear
10:54 PM 50.0 °F - 24.1 °F 36% 30.12 in 10.0 mi East 4.6 mph - N/A   Clear
11:54 PM 48.0 °F - 24.1 °F 39% 30.10 in 10.0 mi ESE 5.8 mph - N/A   Clear
12:54 AM 48.9 °F - 23.0 °F 36% 30.09 in 10.0 mi SE 3.5 mph - N/A   Clear